SCP
0 0 0 0 0 0 0 0 0 0 0 0 0 0 0 0 0 0 0 0 0 0 0 0 0 0 0 0 0 0 0 0 0 0 0 0 0 0 0 0 0 0 0
0 0 0 0 0 0 0 0 0 0 0 0 0 0 0 0 0 0 0 0 0 0 0 0 0 0 0 0 0 0 0 0 0 0 0 0 0 0 0 0 0 0 0
0 0 0 0 0 0 0 0 0 0 0 0 0 0 0 0 0 0 0 0 0 0 0 0 0 0 0 0 0 0 0 0 0 0 0 0 0 0 0 0 0 0 0
0 0 0 0 0 0 0 0 0 0 0 0 0 0 0 0 0 0 0 0 0 0 0 0 0 0 0 0 0 0 0 0 0 0 0 0 0 0 0 0 0 0 0
0 0 0 0 0 0 0 0 0 0 0 0 0 0 0 0 0 0 0 0 0 0 0 0 0 0 0 0 0 0 0 0 0 0 0 0 0 0 0 0 0 0 0
0 0 0 0 0 0 0 0 0 0 0 0 0 0 0 0 0 0 0 0 0 0 0 0 0 0 0 0 0 0 0 0 0 0 0 0 0 0 0 0 0 0 0
0 0 0 0 0 0 0 0 0 0 0 0 0 0 0 0 0 0 0 0 0 0 0 0 0 0 0 0 0 0 0 0 0 0 0 0 0 0 0 0 0 0 0
0 0 0 0 0 0 0 0 0 0 0 0 0 0 0 0 0 0 0 0 0 0 0 0 0 0 0 0 0 0 0 0 0 0 0 0 0 0 0 0 0 0 0
0 0 0 0 0 0 0 0 0 0 0 0 0 0 0 0 0 0 0 0 0 0 0 0 0 0 0 0 0 0 0 0 0 0 0 0 0 0 0 0 0 0 0
0 0 0 0 0 0 0 0 0 0 0 0 0 0 0 0 0 0 0 0 0 0 0 0 0 0 0 0 0 0 0 0 0 0 0 0 0 0 0 0 0 0 0
0 0 0 0 0 0 0 0 0 0 0 0 0 0 0 0 0 0 0 0 0 0 0 0 0 0 0 0 0 0 0 0 0 0 0 0 0 0 0 0 0 0 0
0 0 0 0 0 0 0 0 0 0 0 0 0 0 0 0 0 0 0 0 0 0 0 0 0 0 0 0 0 0 0 0 0 0 0 0 0 0 0 0 0 0 0
0 0 0 0 0 0 0 0 0 0 0 0 0 0 0 0 0 0 0 0 0 0 0 0 0 0 0 0 0 0 0 0 0 0 0 0 0 0 0 0 0 0 0
0 0 0 0 0 0 0 0 0 0 0 0 0 0 0 0 0 0 0 0 0 0 0 0 0 0 0 0 0 0 0 0 0 0 0 0 0 0 0 0 0 0 0
0 0 0 0 0 0 0 0 0 0 0 0 0 0 0 0 0 0 0 0 0 0 0 0 0 -0 -0 0 0 0 0 0 0 0 0 0 0 0 0 0 0 0 0
0 0 0 0 0 0 0 0 0 0 0 0 0 0 0 0 0 0 0 0 0 0 0 0 0 0 0 0 0 0 0 0 0 0 0 0 0 0 0 0 0 0 0
0 0 0 0 0 0 0 0 0 0 0 0 0 0 0 0 0 0 0 0 0 0 0 0 0 0 0 0 0 0 0 0 0 0 0 0 0 0 0 0 0 0 0
0 0 0 0 0 0 0 0 0 0 0 0 0 0 0 0 0 0 0 0 0 0 0 0 0 0 0 0 0 0 0 0 0 0 0 0 0 0 0 0 0 0 0
0 0 0 0 0 0 0 0 0 0 0 0 0 0 0 0 0 0 0 0 0 0 0 0 0 0 0 0 0 0 0 0 0 0 0 0 0 0 0 0 0 0 0
0 0 0 0 0 0 0 0 0 0 0 0 0 0 0 0 0 0 0 0 0 0 0 0 0 0 0 0 0 0 0 0 0 0 0 0 0 0 0 0 0 0 0
0 0 0 0 0 0 0 0 0 0 0 0 0 0 0 0 0 0 0 0 0 0 0 0 0 0 0 0 0 0 0 0 0 0 0 0 0 0 0 0 0 0 0
0 0 0 0 0 0 0 0 0 0 0 0 0 0 0 0 0 0 0 0 0 0 0 0 0 0 0 0 0 0 0 0 0 0 0 0 0 0 0 0 0 0 0
0 0 0 0 0 0 0 0 0 0 0 0 0 0 0 0 0 0 0 0 0 0 0 0 0 0 0 0 0 0 0 0 0 0 0 0 0 0 0 0 0 0 0
0 0 0 0 0 0 0 0 0 0 0 0 0 0 0 0 0 0 0 0 0 0 0 0 0 0 0 0 0 0 0 0 0 0 0 0 0 0 0 0 0 0 0
0 0 0 0 0 0 0 0 0 0 0 0 0 0 0 0 0 0 0 0 0 0 0 0 0 0 0 0 0 0 0 0 0 0 0 0 0 0 0 0 0 0 0
0 0 0 0 0 0 0 0 0 0 0 0 0 0 0 0 0 0 0 0 0 0 0 0 0 0 0 0 0 0 0 0 0 0 0 0 0 0 0 0 0 0 0
Wind_Speed
1 2 2 1 2 1 2 2 2 2 2 2 3 3 3 3 3 3 3 6 7 8 9 8 9 9 10 10 10 10 11 10 10 10 10 9 10 10 10 10 9 9 8
2 2 2 2 2 2 2 2 3 3 3 3 3 4 4 4 3 4 3 5 7 8 9 9 9 10 10 10 10 10 11 11 11 11 10 11 10 11 12 11 11 10 10
3 2 2 3 3 2 2 2 2 2 2 2 4 4 4 4 4 4 4 3 4 6 8 9 10 10 11 11 10 10 10 10 11 11 11 11 11 11 12 12 12 12 11
3 3 3 3 3 2 2 2 2 2 3 3 3 3 3 3 4 4 3 3 3 3 5 8 9 10 11 11 11 10 10 10 11 11 12 12 12 12 12 12 13 13 12
4 3 3 3 3 3 2 3 2 2 3 3 3 3 3 3 4 4 4 4 3 3 3 5 8 9 10 11 11 11 11 11 12 12 12 12 13 13 13 13 13 14 14
4 4 3 4 3 3 3 3 3 2 3 3 3 3 3 3 3 4 4 3 3 3 3 3 3 5 9 11 11 11 11 12 12 12 13 12 13 13 14 13 13 13 14
5 4 4 3 3 4 4 4 3 3 2 1 1 1 2 2 3 3 3 3 3 3 3 3 3 3 4 9 11 12 12 12 12 12 13 13 13 13 13 14 13 13 14
5 5 4 4 4 4 4 4 3 2 2 2 2 1 1 2 1 2 2 3 3 2 3 3 3 3 3 3 6 11 12 13 13 13 13 13 14 13 13 13 13 14 14
5 5 5 5 5 4 4 4 4 5 3 3 3 3 2 3 2 2 2 3 2 2 2 2 3 3 4 3 4 8 11 13 14 14 13 13 14 13 14 14 13 13 13
5 5 5 5 5 4 5 5 4 4 4 4 2 2 2 2 2 2 2 1 2 3 3 3 3 4 4 4 5 8 10 12 14 14 14 13 13 14 14 14 13 13 12
4 4 4 4 5 4 5 5 4 5 4 5 3 2 1 1 2 2 3 3 2 2 3 3 3 4 4 4 4 7 10 11 13 13 13 13 13 14 14 13 12 12 12
3 4 4 4 4 4 5 5 5 5 4 4 4 3 3 3 3 2 3 3 4 3 3 3 3 3 3 4 5 9 10 10 11 12 11 12 13 13 13 12 11 12 11
3 4 4 4 4 4 5 5 5 5 5 5 5 4 3 3 2 2 2 2 3 3 3 2 3 3 3 3 4 8 9 10 10 10 10 10 11 11 12 11 11 11 11
3 4 4 4 4 4 4 3 3 4 4 5 5 4 3 3 3 3 3 2 3 4 3 4 2 2 2 3 5 7 6 9 10 9 9 9 10 10 11 10 10 10 10
3 3 3 3 4 4 3 3 3 4 4 4 4 4 3 2 2 2 2 3 3 3 5 3 2 2 2 3 5 4 5 9 9 9 9 8 9 9 9 9 9 9 9
3 3 3 3 3 3 3 3 3 3 3 3 3 4 3 2 2 2 2 2 2 3 4 3 3 3 4 4 5 4 5 9 9 9 9 8 8 8 8 8 8 8 8
3 3 3 3 3 2 2 3 3 3 4 3 2 3 3 2 2 1 1 2 2 2 4 4 3 3 3 4 5 4 4 4 5 8 9 8 7 7 7 7 7 6 6
3 3 3 2 2 2 2 3 3 3 3 3 3 3 2 2 2 1 1 2 2 2 3 5 4 3 3 4 4 5 4 3 3 7 8 8 7 7 6 5 5 5 5
2 1 1 2 2 2 2 2 2 2 2 3 3 3 3 2 2 2 2 2 2 2 2 3 4 3 3 3 4 4 4 3 3 5 6 6 6 5 5 4 4 4 4
1 1 1 1 1 1 1 2 2 2 2 2 2 2 3 4 4 3 2 2 2 2 2 2 3 3 3 3 2 3 3 2 3 3 4 4 4 4 4 4 4 4 3
1 1 0 0 0 1 1 1 1 1 1 1 1 1 1 2 2 2 2 2 2 2 1 2 3 3 3 2 3 2 3 3 3 2 2 3 2 2 3 4 4 4 3
1 1 1 1 1 1 1 1 1 0 1 1 0 0 1 1 1 2 3 3 3 2 2 2 3 3 4 3 2 2 2 3 3 2 2 3 2 2 2 2 3 3 2
1 1 1 1 1 1 1 2 2 1 1 0 0 0 1 2 3 1 2 3 4 4 4 3 3 4 4 3 2 2 2 3 4 3 2 3 2 3 2 3 3 1 1
1 1 1 1 1 1 2 2 3 2 2 1 1 0 0 1 1 1 1 1 2 3 3 2 2 3 3 2 2 2 2 2 3 2 2 1 2 2 3 1 1 2 2
2 2 2 1 1 2 3 3 3 2 2 2 1 1 0 0 1 2 1 1 2 3 3 3 3 2 3 3 2 1 1 1 3 3 1 0 1 2 2 2 1 3 3
2 2 2 2 2 1 3 3 3 1 1 1 2 1 1 1 2 2 1 0 1 3 2 3 3 4 3 3 4 2 1 1 2 2 1 0 0 1 2 2 1 1 2
Wind_Direction
253 255 257 261 249 250 256 255 226 217 213 218 220 212 208 213 225 236 247 252 252 251 250 251 247 243 241 239 233 229 226 226 227 224 222 225 224 224 225 226 228 231 235
239 257 263 260 251 240 244 244 237 218 211 217 226 217 215 217 224 235 243 250 250 249 250 252 255 253 250 247 243 236 234 232 231 228 228 229 228 229 229 228 230 231 235
240 246 259 259 250 238 242 254 247 225 215 223 231 222 217 217 221 232 242 244 246 248 252 254 261 261 260 254 251 245 241 240 238 235 233 233 233 234 235 232 231 233 235
239 240 249 256 255 237 228 239 234 238 226 224 232 228 226 223 226 228 232 238 240 248 252 261 267 267 266 262 259 252 249 246 244 241 237 236 237 238 239 238 235 234 235
242 237 243 250 252 244 228 237 237 232 234 234 234 230 222 226 229 232 233 237 237 238 242 266 270 271 272 267 264 262 257 253 250 247 244 240 239 240 241 242 240 237 236
244 240 243 246 243 248 242 227 229 231 233 231 243 249 238 236 229 224 228 236 239 243 242 255 263 273 275 274 270 268 268 262 258 255 250 248 244 243 243 244 245 242 240
243 240 248 245 238 238 235 229 221 220 235 207 196 294 293 252 234 233 225 230 243 245 238 245 247 254 273 277 273 270 271 270 267 263 260 254 251 247 246 246 248 247 245
241 242 236 237 236 238 235 229 212 208 228 192 165 146 308 310 275 237 231 231 243 246 246 252 248 251 256 264 269 272 272 273 271 269 268 264 256 254 251 251 250 250 249
246 240 236 234 235 230 229 226 213 205 217 214 186 166 182 234 294 270 237 235 239 246 254 254 253 257 259 261 264 267 270 272 273 271 271 273 264 259 259 256 253 254 255
254 248 240 234 236 234 229 225 221 212 205 208 208 204 197 188 191 288 299 266 253 253 254 266 258 258 256 258 261 263 266 266 272 271 271 272 271 265 264 262 258 256 258
255 252 246 235 235 237 231 226 225 219 207 203 201 190 191 219 203 204 266 287 287 252 249 254 256 258 258 257 261 263 265 267 270 274 273 273 274 272 266 268 269 264 258
261 254 247 236 237 238 232 228 224 218 209 200 200 195 189 197 205 201 236 263 280 279 267 255 254 261 263 259 271 276 268 268 271 275 278 279 279 278 271 271 274 269 262
274 261 255 243 241 240 233 226 221 215 203 197 200 208 211 214 212 207 217 257 282 288 280 263 250 254 266 273 277 285 272 271 273 275 277 279 279 281 276 275 275 276 271
263 261 254 249 245 240 233 220 214 213 202 201 209 206 209 217 214 213 207 215 280 291 282 271 274 254 272 273 283 294 283 274 273 274 277 279 277 277 274 274 275 274 278
263 261 258 256 253 238 224 210 214 214 204 204 202 203 207 214 211 220 215 200 206 270 284 281 288 288 291 284 289 296 290 277 276 276 276 278 278 275 274 272 271 272 276
262 263 262 257 254 236 218 210 214 213 204 207 205 195 198 209 213 212 217 224 215 229 268 279 280 302 304 303 303 302 293 293 284 279 278 276 278 277 276 272 270 269 268
255 253 252 253 250 234 209 205 216 205 205 209 203 185 196 197 201 218 228 226 227 226 259 286 289 298 302 301 307 310 299 288 286 284 282 281 282 279 277 274 267 265 262
249 251 252 246 236 220 206 206 211 204 198 199 202 191 201 201 205 218 229 236 234 237 245 274 293 298 294 297 304 307 304 303 297 295 293 291 288 285 280 274 271 265 263
257 260 248 231 226 213 209 214 206 202 201 199 200 197 200 186 223 235 237 242 245 255 250 255 281 294 295 300 311 307 304 304 306 307 305 302 299 293 288 283 277 268 266
276 277 257 238 230 218 218 217 200 191 191 199 211 207 208 205 212 218 231 236 243 249 246 259 279 290 293 295 296 301 318 321 312 315 313 310 317 317 307 298 279 270 267
309 304 313 323 274 221 227 208 192 202 187 197 223 228 232 239 245 248 243 228 225 237 251 266 278 290 293 304 306 307 311 320 316 310 318 314 323 315 304 298 280 259 259
358 12 40 31 342 299 286 300 292 154 173 175 174 36 352 326 310 298 290 280 271 261 251 259 276 279 289 290 296 298 306 323 313 323 324 306 310 292 289 277 270 278 269
20 11 5 33 360 352 353 357 1 22 99 83 71 66 356 350 341 359 342 329 325 310 283 266 262 269 267 265 271 290 298 298 287 298 314 299 315 300 297 293 288 249 119
18 11 354 348 2 345 7 31 27 42 64 57 48 335 73 333 316 303 329 349 336 324 309 294 257 270 271 264 252 258 267 293 296 303 308 288 323 317 316 295 187 114 81
19 18 14 25 26 4 26 33 16 61 64 37 18 24 67 259 288 312 350 350 330 323 331 324 301 304 304 308 299 285 284 305 302 306 319 6 347 338 339 350 51 70 62
28 25 20 27 40 30 18 19 9 65 63 25 8 356 338 320 309 321 324 356 323 314 337 1 4 359 348 343 345 325 265 251 277 291 301 358 331 5 351 345 15 30 50